Regional Weather Roundup
Issued by NWS

Home | Current Version | Previous Version | Text Only | Print | Product List | Glossary On
Versions: 1 2 3 4 5 6 7 8 9 10 11 12 13 14 15 16 17 18 19 20 21 22 23 24 25 26 27 28 29 30 31 32 33 34 35 36 37 38 39 40 41 42 43 44 45 46 47 48 49 50
000
ASUS42 KTBW 222113
RWRFL
FLORIDA REGIONAL WEATHER ROUNDUP
NATIONAL WEATHER SERVICE TAMPA BAY RUSKIN FL
400 PM EST THU FEB 22 2018

NOTE: "FAIR" INDICATES FEW OR NO CLOUDS BELOW 12,000 FEET WITH NO
SIGNIFICANT WEATHER AND/OR OBSTRUCTIONS TO VISIBILITY.

FLZ001>010-012>015-112-114-115-222200-
PANHANDLE FLORIDA

CITY           SKY/WX    TMP DP  RH WIND       PRES   REMARKS
PENSACOLA      CLOUDY    76  68  76 SE12      30.32F
PENSACOLA NAS  MOSUNNY   76  68  76 E13       30.31F
MILTON NAS     FAIR      80  64  58 S14       30.31F
CRESTVIEW      FAIR      82  64  54 SW8       30.32F
DUKE FIELD     MOSUNNY   79  67  64 S10       30.31F
VALPARAISO     MOSUNNY   76  67  75 S8        30.32F
MARY ESTHER    MOSUNNY   76  68  77 SE10      30.31
PANAMA CITY    PTSUNNY   78  66  66 S9        30.32F
TYNDALL AFB    MOSUNNY   76  67  73 S13       30.33S
APALACHICOLA   FAIR      75  68  78 E9        30.35F

STATION/POSITION SKY/WX   TEMP    WIND        PRES    WAVE   SWELL
                          AIR SEA DIR/SP/G            HT/PER HT/PER
                          (F)     (DEG/KT/KT) (MB)    (FT/S) (FT/S)
29.2N   88.2W                 76  110/ 12/ 16 1025.5
28.8N   86.0W              73 74  110/ 12/ 14 1025.8F   4/ 7   3/ 7
PANAMA CITY BEAC           70 70  150/  7/  8 1027.6F
TOWER C                    67      90/ 11/ 12 1027.8F

$$
FLZ011-016>038-118-127-128-134-139-239-222200-
NORTH FLORIDA

CITY           SKY/WX    TMP DP  RH WIND       PRES   REMARKS
MARIANNA       PTSUNNY   81  61  50 E6        30.32F
TALLAHASSEE    FAIR      83  62  49 S9        30.32F
PERRY          FAIR      85  59  40 E5        30.33F
LIVE OAK       PTSUNNY   82  59  44 NE7       30.34F
CROSS CITY     FAIR      85  60  42 E7        30.36F
LAKE CITY      CLOUDY    81  59  47 E5        30.34F
GAINESVILLE    PTSUNNY   83  59  44 NE9       30.35F
WILLISTON      SUNNY     86  59  39 VRB6      30.32F
PALATKA        FAIR      81  64  57 E10       30.36S
MAYPORT NAS    FAIR      75  66  73 E8        30.39S
JACKSONVILLE   FAIR      80  62  54 E9        30.37S
JAX NAS        FAIR      79  64  60 E13       30.37F
JAX CECIL      PTSUNNY   82  64  54 E8        30.36S
FERNANDINA BEA FAIR      75  64  69 E7        30.38F
ST AUGUSTINE   PTSUNNY   75  67  76 E12       30.39S
PALM COAST     MOSUNNY   79  66  65 E12       30.37F

STATION/POSITION SKY/WX   TEMP    WIND        PRES    WAVE   SWELL
                          AIR SEA DIR/SP/G            HT/PER HT/PER
                          (F)     (DEG/KT/KT) (MB)    (FT/S) (FT/S)
SHELL POINT      NOT AVBL
KEATON BEACH               73     220/  8/  9 1027.4F
CEDAR KEY                  78     260/  3/  4 1026.7F
FERNANDINA                 77 65  100/  4/  9 1030.0F
30.7N   81.3W                 67                N/A     3/ 8   2/18
MAYPORT                    69 63   60/  8/  9 1029.1F
31.4N   80.9W              63 61   40/  6/  6 1029.5F   4/ 9   3/ 9
ST AUGUSTINE               70 68   50/  8/  8 1029.0S

$$
FLZ040-043>046-052-053-057-058-063-144-222200-
INTERIOR CENTRAL FLORIDA

CITY           SKY/WX    TMP DP  RH WIND       PRES   REMARKS
OCALA          PTSUNNY   84  61  45 NE8       30.32F
LEESBURG       FAIR      86  61  42 NE7       30.32F
SANFORD        PTSUNNY   81  65  58 E15G24    30.33F
ORLANDO EXEC   PTSUNNY   84  61  45 E12       30.32F
ORLANDO INTL   FAIR      84  63  49 E13       30.32S
KISSIMMEE      FAIR      84  63  49 E13       30.32F
WINTER HAVEN   FAIR      85  61  44 E12       30.31F
LAKELAND       MOSUNNY   84  63  48 E10       30.30F
BARTOW         MOSUNNY   84  61  45 E10       30.30F
SEBRING        FAIR      85  63  48 E13       30.31S
OKEECHOBEE     CLOUDY    81  63  54 E7        30.31F

$$
FLZ041-047-054-059-064-141-147-222200-
EAST CENTRAL FLORIDA

CITY           SKY/WX    TMP DP  RH WIND       PRES   REMARKS
ORMOND BEACH   MOSUNNY   75  66  73 E9G16     30.36F
DAYTONA BEACH  FAIR      78  68  71 E9        30.36S
DELAND         FAIR      79  66  65 E16       30.34S
NEW SMYRNA BEA MOSUNNY   77  66  69 E9        30.37F
JFK SPACE CTR  PTSUNNY   78  71  79 SE9G17    30.34F
TITUSVILLE     MOSUNNY   82  64  54 E12       30.35F
CAPE CANAVERAL FAIR      78  67  69 SE12      30.34S
PATRICK AFB    FAIR      78  71  79 E9        30.34F
MELBOURNE      FAIR      79  66  64 E14       30.34F
VERO BEACH     FAIR      79  66  64 E12       30.34F
FT PIERCE      FAIR      79  66  64 SE14      30.33F
STUART         MOSUNNY   81  66  61 E14       30.34F

STATION/POSITION SKY/WX   TEMP    WIND        PRES    WAVE   SWELL
                          AIR SEA DIR/SP/G            HT/PER HT/PER
                          (F)     (DEG/KT/KT) (MB)    (FT/S) (FT/S)
28.5N   80.2W              75 73  100/ 12/ 16 1027.9F   5/ 8   5/ 8
TRIDENT PIER               78 74   80/  8/ 11 1029.1F
28.4N   80.5W                 74                N/A     3/11   2/11
27.5N   80.2W                 75                N/A     4/14   2/14

$$
FLZ050-056-061-142-242-148-248-149-249-151-251-155-255-
160-260-222200-
WEST CENTRAL FLORIDA

CITY           SKY/WX    TMP DP  RH WIND       PRES   REMARKS
CRYSTAL RIVER  FAIR      82  59  44 E9        30.31F
INVERNESS      PTSUNNY   84  63  48 E8        30.32S
BROOKSVILLE    PTSUNNY   85  60  42 CALM      30.31F
CLEARWATER AIR FAIR      82  61  47 E6        30.29F
ST PETE CLEARW FAIR      85  63  47 NE5       30.29F
TAMPA INTL     PTSUNNY   85  61  44 SE7       30.29
TAMPA EXEC     CLOUDY    84  63  48 NE7       30.30F
PLANT CITY     CLOUDY    86  63  45 E7        30.32S
MACDILL AFB    FAIR      85  62  45 E9        30.28F
PETER O KNIGHT CLOUDY    86  63  45 S7        30.29F
ST PETERSBURG  PTSUNNY   83  66  56 NE7       30.27F
SARASOTA       PTSUNNY   86  64  47 SE9       30.26F
VENICE         PTSUNNY   86  64  48 E10G16    30.28F

STATION/POSITION SKY/WX   TEMP    WIND        PRES    WAVE   SWELL
                          AIR SEA DIR/SP/G            HT/PER HT/PER
                          (F)     (DEG/KT/KT) (MB)    (FT/S) (FT/S)
27.3N   84.2W                 74                N/A     4/ 6
CLEARWATER BEACH           74 72  350/  9/ 13 1026.0F
MIDDLE TAMPA BAY           80     110/  7/  8 1025.6F
VENICE                     83 74   80/  6/  8 1025.2F

$$
FLZ066-069-070-075>078-162-262-165-265-222200-
SOUTHWEST FLORIDA AND KEYS

CITY           SKY/WX    TMP DP  RH WIND       PRES   REMARKS
PUNTA GORDA    FAIR      86  64  47 E12       30.29F
FT MYERS       PTSUNNY   85  66  53 NE13      30.26F
SOUTHWEST INTL FAIR      83  66  56 E12       30.27F
NAPLES         FAIR      83  67  58 E8        30.25F
MARCO ISLAND   FAIR      83  67  58 E13       30.26F
IMMOKALEE      FAIR      86  66  51 E15G22    30.28F
MARATHON       FAIR      81  66  60 E10G22    30.25F
KEY WEST NAS   FAIR      80  68  66 E20G25    30.25S
KEY WEST INTL  FAIR      80  68  66 MISG      30.25F

STATION/POSITION SKY/WX   TEMP    WIND        PRES    WAVE   SWELL
                          AIR SEA DIR/SP/G            HT/PER HT/PER
                          (F)     (DEG/KT/KT) (MB)    (FT/S) (FT/S)
NAPLES                        74  260/  8/  9 1024.7F
DRY TORTUGAS               76      80/ 17/ 19 1023.7F
SAND KEY                   77                 1024.4F
LONG KEY                   77     100/ 13       N/A
MOLASSES REEF              76 77   80/ 16/ 18 1024.9F

$$
FLZ067-068-071>074-168-172>174-222200-
SOUTHEAST FLORIDA

CITY           SKY/WX    TMP DP  RH WIND       PRES   REMARKS
W PALM BEACH   FAIR      81  67  62 SE15      30.32F
BOCA RATON     MOSUNNY   79  68  69 E12G18    30.31F
FT LAUDER-EXEC FAIR      79  68  69 E15       30.30F
FT LAUDERDALE  FAIR      80  69  69 E15       30.29F
POMPANO BEACH  FAIR      80  69  69 E12       30.31S
PEMBROKE PINES PTSUNNY   82  66  58 NE16      30.31F
OPA LOCKA      FAIR      81  66  60 E15G21    30.30F
MIAMI          PTSUNNY   80  67  64 E13G22    30.29F
WEST KENDALL   FAIR      81  65  58 E18G24    30.29S
HOMESTEAD      FAIR      79  69  70 E12       30.28S

STATION/POSITION SKY/WX   TEMP    WIND        PRES    WAVE   SWELL
                          AIR SEA DIR/SP/G            HT/PER HT/PER
                          (F)     (DEG/KT/KT) (MB)    (FT/S) (FT/S)
PORT EVERGLADES            78      80/  8/ 13 1026.2F
VIRGINIA KEY               77 78   50/ 13/ 15 1025.0F
LAKE WORTH                 76 77  100/ 10/ 12 1027.6F
FOWEY ROCKS                76 77   70/ 18/ 19 1026.2F
SETTLEMENT POINT           76      70/ 16/ 18 1026.8F

$$




USA.gov is the U.S. government's official web portal to all federal, state and local government web resources and services.